[Sidewell] Escopo de fornecimento do compressor de ar Atlas CP
recomenda 1622000900 especificações da luva do eixo do compressor de ar Atlas, modelos, preços, cotações, números de peça, fotos, imagens, 1622000900 embalagem da luva do eixo do compressor de ar Atlas, dimensões, origem, parâmetros técnicos, vendas, distribuição, produção, pós-venda, manutenção, finalidade, instruções de uso.
1622000900 Área de vendas da luva do eixo do compressor de ar Atlas:
Cidade de Chengdu, província de Sichuan, cidade de Chongqing, cidade de Guiyang, província de Guizhou, cidade de Kunming, província de Yunnan, cidade de Nanning, província de Guangxi, cidade de Changsha, província de Hunan, cidade de Xi'an, província de Shaanxi, cidade de Lanzhou, província de Gansu,
Urumqi, Região Autônoma de Xinjiang, Cidade de Yinchuan, Região Autônoma de Ningxia, Cidade de Lhasa, Região Autônoma do Tibete, Cidade de Taiyuan, Província de Shanxi, Cidade de Zhengzhou, Província de Henan, Cidade de Wuhan, Província de Hubei,
Cidade de Hefei, província de Anhui, cidade de Hohhot, região autônoma da Mongólia Interior, cidade de Shijiazhuang, província de Hebei, cidade de Nanjing, cidade de Suzhou, cidade de Wuxi, província de Jiangsu, cidade de Xangai, cidade de Tianjin, cidade de Pequim, cidade de Changchun, província de Jilin, cidade de Shenyang, Província de Liaoning, cidade de Dalian, província de Heilongjiang, cidade de Harbin, cidade de Jinan, província de Shandong, cidade de Guangzhou, cidade de Shenzhen, cidade de Dongguan, província de Guangdong,
Cidade de Xiamen, província de Fujian, cidade de Haikou, província de Hainan
[Sedwell] Instruções para pedido on-line de acessórios
1. Como existem muitos tipos de acessórios para compressores de ar, o preço de venda será ajustado no tempo de acordo com as mudanças no preço de mercado e está diretamente relacionado a fatores como a quantidade de compra e se o imposto está incluído na compra. Antes de decidir pela compra, entre em contato conosco para verificação através da ferramenta de mensagens instantâneas ou envie-nos uma carta ou telefone com detalhes. Para consultas, prevalecerá a cotação e o contrato reais do vendedor;
2. Como a maioria dos acessórios e lubrificantes do compressor de ar são peças personalizadas, confirme cuidadosamente antes de fazer um pedido. Não serão efetuadas devoluções ou trocas se não existirem problemas de qualidade após a encomenda;
3. Não faça pedidos diretamente online de produtos do site sem a confirmação de ambas as partes, para não causar transtornos à sua experiência de compra. Por favor, coopere!
[Lateral] Exibição de imagem física-1622000900 Bucha do compressor de ar AtlasTiro real





[Lateral]Força da empresa e exibição de serviço


[Sedwell] Inquérito ao Ponto de Serviço Nacional
Região Sudoeste:Nº 88, Jinfu Road, distrito de Jinniu, cidade de Chengdu, província de Sichuan
Escopo de serviço: Xichang/Panzhihua, Sichuan, Chongqing, Kunming, Yunnan, Guiyang, Guizhou, Lhasa, Tibete
Região Noroeste: Avenida Beichen, distrito de Weiyang, cidade de Xi'an, província de Shaanxi
Área de serviço: Lanzhou, Gansu, Yinchuan, Ningxia, Urumqi, Xinjiang, Xining, Qinghai
Região Nordeste: Zona de Desenvolvimento Econômico de Shenyang, cidade de Shenyang, província de Liaoning
Área de serviço:Changchun, Jilin, Harbin, Heilongjiang
Norte da China: Rua Hailar, distrito de Xincheng, cidade de Hohhot, Mongólia Interior
Área de serviço: Taiyuan, Shanxi, Baoding, Hebei, Tianjin, Pequim
Sul da China: Avenida Longyan, cidade de Humen, cidade de Dongguan, província de Guangdong
Área de serviço: Nanning, Guangxi, Haikou, Hainan, Xiamen, Fujian
China Central: East Street, distrito de Guancheng, cidade de Zhengzhou, província de Henan
Área de serviço: Wuhan, Hubei, Nanchang, Jiangxi, Changsha, Hunan
Leste da China: Yanshan Henan Road, cidade de Ningbo, província de Zhejiang
Área de serviço: Jinan, Shandong, Hefei, Anhui, Xangai, Suzhou, Jiangsu
[Lateral] Atlas CPAcessórios para compressor de ar e óleo para compressor de ar Atlas CP para mais consultas
Sidewell atacado 1092150009 engrenagem de acionamento Atlas
Sidewell atacado 1092150010 engrenagem Atlas
Sidewell Wholesale 1092150011 Engrenagem de acionamento Atlas
Sidewell atacado 1092150012 engrenagem Atlas
Sidewell Wholesale 1092150013 Engrenagem de acionamento Atlas
Cedarville Atacado 1092150014 Atlas Gear
Sidewell Wholesale 1092150015 Engrenagem de acionamento Atlas
Sidewell Atacado 1092150016 Atlas Gear
Sidewell atacado 1092150017 engrenagem de acionamento Atlas
Cedarville Atacado 1092150018 Atlas Gear
Sidewell atacado 1092150019 engrenagem de acionamento Atlas
1613568100 Telhado1.358,00 15888,6
Conector 1613571600 1.591,90 18625,23
1613571800 Válvula 55,2 645,84
1613572100 Primavera 11.2 131.04
1613572200 Assento de válvula 71,7 838,89
1613572300 Arruela/junta/forro 1,4 16,38
1613572680 Válvula unidirecional 505,80 5917,86
1613572700 Assento de válvula 73,9 864,63
1613572800 Mola do compressor 3,9 45,63
1613573701 Manômetro 161,70 1891,89
1613573702 Manômetro 200,50 2345,85
1613573703 Manômetro 211,80 2478,06
1613574900 Mangueira 143,90 1683,63
1613599400 Conjunto de mangueira 178,00 2082,6
1613600000 Válvula respiratória248,80 2910,96
1613610000 Secador 42.345,30 495440,01
1613610510 Kit de manutenção de filtro 182.40 2134.08
1613610590 elemento filtrante 20,9 244,53
1613610591 Filtro de óleo (=1613 6105 01 35,1 410,67
1613611800 Secador99.999.999,90 1169999999
1613618000 Arruela/Junta/Embalagem 6 70,2
1613619500 Cilindro99.999.999,90 1169999999
1613620200 Núcleo do refrigerador 2.560,40 29956,68
1613641100 Silenciador 85,7 1002,69
1613641200 Arruela 161,50 1889,55
1613649500 Tubo 271,30 3174,21
1613653700 Conjunto de mangueira 198,20 2318,94
Válvula 1613660800 147,90 1730,43
Válvula 1613661000 142,20 1663,74
1613663900 PLACA DE DADOS 0,8 9,36
1613663922 Painel de dados 1,5 17,55
1613669000 Arruela 9,2 107,64
1613673900 Conector 5,5 64,35
1613674800 Ventilador 678,40 7937,28
1613675201 Almofada absorvente de vibração 37,6 439,92
1613675202 Almofada absorvente de vibração 44,6 521,82
1613675203 Almofada absorvente de vibração 61,8 723,06
1613675204 Diafragma 62,6 732,42
1613675205 Almofada absorvente de vibração99.999.999,90 1169999999
1613675210 Almofada 82,2 961,74
1613675211 Almofada 84,5 988,65
1613675212 Almofada absorvente de vibração99.999.999,90 1169999999
1613675213 Almofada absorvente de vibração 58,8 687,96
1613675216 Almofada absorvente de vibração 55,2 645,84
1613675217 Almofada absorvente de vibração 37,6 439,92
1613675218 Almofada absorvente de vibração 63,5 742,95
1613675219 Almofada absorvente de vibração 65,1 761,67
1613676100 Trocador de calor 4.214,00 49303,8
1613676200 Trocador de calor 4.666,10 54593,37
1613678300 Pistão 32,9 384,93
1613678310 Pistão 22,1 258,57
1613679001 326,50 3820,05
1613679200 Pós-resfriador2.257,00 26406,9
1613679400 Tampa da válvula/tampa final 19,3 225,81
1613679600 Assento de válvula 34,4 402,48
1613680000 Primavera 29,6 346,32
1613680001 Primavera 24,3 284,31
1613680200 Primavera 4,4 51,48
1613680201 Primavera 4,7 54,99
1613680400 Parafuso 28,1 328,77
1613681300 Bujão roscado 4 46,8
1613681600 Vedação com lábio 43,3 506,61
1613681701 Mola 54,5 637,65
1613681801 Válvula 102,60 1200,42
1613682800 CABEÇA DE FILTRO 177,40 2075,58
1613684500 Simulador8.506,80 99529,56
1613684501 Simulador1.927,90 22556,43
1613684980 Conjunto da placa superior 888,10 10390,77
1613687800 Ventilador 556,90 6515,73
1613687900 Tampa do ventilador 1.539,70 18014,49
1613688200 Tubo 5,8 67,86
1613688303 Termostato 131,30 1536,21
1613688401 Acoplamento 313,00 3662,1
1613688402 Acoplamento 350,50 4100,85
1613688403 Junta de tubo 298,60 3493,62
1613688800 Resfriador de óleo1.406,70 16458,39
1613688900 Radiador de óleo1.902,90 22263,93
1613689000 Conjunto de mangueira 100,10 1171,17
1613689101 Conjunto de mangueira 234,90 2748,33
1613689200 Conjunto de mangueira 232,20 2716,74
1613689703 Feixe de fios 309,90 3625,83
1613689704 Manga de arame 198,70 2324,79
1613690000 Mangueira75,8 886,86
1613690100 Mangueira88,9 1040,13
1613690400 Conjunto de mangueira 239,30 2799,81
Válvula 161369100099.999.999,90 1169999999
1613692301 Bolha 15,8 184,86
1613693100 LIMPEZA LIN 53,7 628,29
Cabo 1613694700 294,60 3446,82
1613694701 Cabo 307,80 3601,26
1613694900 Adaptador 15 175,5
1613695700 Mangueira72,8 851,76
1613696100 Controlador100.000.000,00 1170000000
REGULADOR 1613696180 - 448,30 5245,11
1613696400 Plugue 9,9 115,83
1613696600 Tampa da válvula/tampa final 25,1 293,67
1613696601 capa 36,9 431,73
1613696602 tampa 14,5 169,65
1613696803 Bocal 12,7 148,59
1613696805 Bocal 65,8 769,86
1613696806 Bocal 140,20 1640,34
1613696900 Anel de pistão 29,5 345,15
1613696901 Anel 25,8 301,86
1613698600 Junta 24 280,8
1613699100 Tubo 129,30 1512,81
1613699300 Mangueira187,90 2198,43
1613700007 Flange 64,5 754,65
1613702286 Pós-resfriador99.999.999,90 1169999999
1613702288 Pós-resfriador padrão 1.932,00 22604,4
1613702300 Núcleo do refrigerador 810,30 9480,51
1613703100 Pistão 51,9 607,23
1613703101 Pistão 46,2 540,54
1613703201 Haste do pistão 76,9 899,73
1613703202 Haste do pistão 67,8 793,26
1613703800 Tensor 480,70 5624,19
1613706100 Suporte 65,7 768,69
1613706200 tubo 166,50 1948,05
1613706300 Tubo 161,10 1884,87
1613706401 Válvula de temperatura99.999.999,90 1169999999
1613706402 Válvula termostática 87C 124,20 1453,14
1613706501 Conjunto de mangueira 263,30 3080,61
1613706502 Conjunto de mangueira 198,90 2327,13
1613712100 Almofada do amortecedor 62,4 730,08
Cabo 1613717101 428,40 5012,28
1613718500 Conjunto de mangueira 144,80 1694,16
1613718600 Carcaça de acoplamento99.999.999,90 1169999999
1613719302 Cabo do sensor de temperatura 80,3 939,51
1613719600 Conjunto de mangueira 941,20 11012,04
1613719700 Conjunto de mangueira 870,60 10186,02
1613721100 Conjunto de mangueira 177,40 2075,58
Válvula 1613721400 170,70 1997,19
1613721800 Mola 44,4 519,48
1613722200 Filtro de ar 573,10 6705,27
1613722700 Tampa do ventilador 717,60 8395,92
1613722801 Ventilador 1.829,50 21405,15
1613722901 Conjunto de ventilador3.600,70 42128,19
1613724700 Placa de identificação 9,6 112,32
1613725401 Cabo 163,20 1909,44
1613726000 Adaptador 73,4 858,78
1613726200 Anel de pistão 50,2 587,34
1613726700 Acoplamento flexível 840,80 9837,36
1613726801 Acoplamento 1.119,30 13095,81
1613726900 Acoplamento776,00 9079,2
1613727300 Pós-resfriador8.676,90 101519,73
1613728301 Cabo455,80 5332,86
1613729000 Tampa da válvula/tampa final 124,00 1450,8
Válvula 1613729700 114,90 1344,33
1613729800 Tampa final 29,8 348,66
1613729900 filtro 49,8 582,66
1613730100 Invólucro separador óleo-água 603.60 7062.12
1613730180 Componente de separação óleo-água 607,60 7108,92
Cabo 161373020099.999.999,90 1169999999
1613730500 Cabo 80,3 939,51
1613730901 Silenciador273,80 3203,46
Sidewell Air Compressor Co., Ltd. é um fornecedor poderoso de 1622000900 buchas de compressor de ar Atlas. Iremos atendê-lo de todo o coração!